Livingston Municipal (8A3)

 

Airport Diagram
No Airport Diagram Available
Current Weather/Forecast (VFR Conditions)
METAR K8A3 190035Z AUTO 00000KT 10SM FEW075 OVC090 14/03 A2988 RMK A01
TAF

Airport Information

All Charts
General
Chart Name View
TAKEOFF MINIMUMS
TAKEOFF MINIMUMS

Approaches
Chart Name Download
RNAV (GPS) RWY 03
RNAV (GPS) RWY 21
VOR/DME RWY 21
RNAV (GPS) RWY 03
RNAV (GPS) RWY 21
VOR/DME RWY 21


Airport Statistics
Departures Arrivals Local
All Collected Stats since June 2016: 4 3 0
2021 Stats: 0 0 0
April Stats: 0 0 0

Inbound Traffic (Arrivals) - 0

No inbound traffic.


Outbound Traffic (Departures) - 0

No outbound traffic.


Local Traffic (Pattern) - 0

No local traffic.